Regional Weather Roundup
Issued by NWS

Home | Current Version | Previous Version | Text Only | Print | Product List | Glossary Off
Versions: 1 2 3 4 5 6 7 8 9 10 11 12 13 14 15 16 17 18 19 20 21 22 23 24 25 26 27 28 29 30 31 32 33 34 35 36 37 38 39 40 41 42 43 44 45 46 47 48 49 50

000
ASUS43 KLOT 020010
RWRIL

ILLINOIS REGIONAL WEATHER ROUNDUP
NATIONAL WEATHER SERVICE CHICAGO/ROMEOVILLE IL
700 PM CDT FRI AUG 01 2014

NOTE: "FAIR" INDICATES FEW OR NO CLOUDS BELOW 12,000 FEET WITH NO
SIGNIFICANT WEATHER AND/OR OBSTRUCTIONS TO VISIBILITY.

* THESE STATIONS ARE NOT UNDER NWS QUALITY CONTROL. THEY ALSO MAY NOT
  REPORT WEATHER SUCH AS PRECIPITATION OR FOG.

ILZ001-002-007-009-015-016-024-020100-
NORTHWEST ILLINOIS

CITY           SKY/WX    TMP DP  RH WIND       PRES   REMARKS
MOLINE         PTSUNNY   76  68  76 SW5       30.06R
6HR MIN TEMP:  76; 6HR MAX TEMP:  84;

STERLING*      PTSUNNY   79  63  57 CALM      30.08R HX  80
SAVANNA*       SUNNY     82  57  42 N6        30.06R HX  81
$$

ILZ003-004-008-010-011-017-018-020100-
NORTH CENTRAL ILLINOIS

CITY           SKY/WX    TMP DP  RH WIND       PRES   REMARKS
ROCKFORD       TSTM      80  61  52 E9        30.08R HX  81
6HR MIN TEMP:  80; 6HR MAX TEMP:  85; 6HR PCP: TRACE;

FREEPORT*      MOSUNNY   78  63  59 CALM      30.09R HX  80
ROCHELLE*      PTSUNNY   77  62  60 S3        30.08R
DE KALB*       MOSUNNY   65  58  79 S13       30.10R
PERU*          CLOUDY    72  61  67 S8        30.09R
$$

ILZ005-006-012>014-019>023-020100-
NORTHEAST ILLINOIS

CITY           SKY/WX    TMP DP  RH WIND       PRES   REMARKS
CHICAGO-OHARE  PTSUNNY   73  56  54 S10       30.07S
6HR MIN TEMP:  73; 6HR MAX TEMP:  85; 6HR PCP:  0.15;

CHICAGO-MIDWAY CLOUDY    75  58  55 SW13      30.07F
6HR MIN TEMP:  72; 6HR MAX TEMP:  82; 6HR PCP:  0.05;

AURORA         LGT RAIN  68  60  75 N5        30.10R
6HR MIN TEMP:  67; 6HR MAX TEMP:  83; 6HR PCP:  0.02;

LANSING*       CLOUDY    70  58  65 SW6       30.08F
JOLIET*        CLOUDY    67  60  78 CALM      30.10R
WAUKEGAN       MOSUNNY   74  59  59 SE8       30.07R
6HR MIN TEMP:  74; 6HR MAX TEMP:  84;

DUPAGE AIRPORT PTSUNNY   70  60  70 S9        30.09R
6HR MIN TEMP:  70; 6HR MAX TEMP:  85; 6HR PCP: TRACE;

KANKAKEE*      LGT RAIN  67  63  87 SW6       30.09F
WHEELING       MOSUNNY   77  59  53 S9        30.08R
6HR MIN TEMP:  70; 6HR MAX TEMP:  80; 6HR PCP:  0.12;

MORRIS*        PTSUNNY   68  64  86 S9        30.10R
ROMEOVILLE*    CLOUDY    68  61  77 S8        30.10R
NORTHERLY ISL    N/A     76  54  46 SW7         N/A
$$

LMZ740>746-020100-
SOUTHERN LAKE MICHIGAN

STATION/POSITION SKY/WX   TEMP    WIND        PRES    VSBY  WAVE
                          AIR SEA DIR/SP/G                  HT/PER
                          (F)     (DEG/KT/KT) (MB)    (MI)  (FT/S)
SOUTHERN BUOY              67 65  190/  8/  8 1018.4R         0
WAUKEGAN HARBOR            70     200/  7/ 10   N/A
HARRISON CRIB              74     190/ 10/ 12   N/A
BURNHAM HARBOR             75     250/  4/ 10   N/A
CALUMET HARBOR             74     200/  6/  7 1017.0R
BURNS HARBOR               77     230/  6/  8   N/A
MICHIGAN CITY              74     140/  4/  7   N/A
MICHIGAN CITY 6N           71 70  150/  2/  4   N/A           1
ST. JOSEPH                 70 70  290/  4/  4   N/A           1
$$

ILZ025>027-034>036-040-047-049-050-058-095>099-020100-
WEST-CENTRAL ILLINOIS

CITY           SKY/WX    TMP DP  RH WIND       PRES   REMARKS
QUINCY         PTSUNNY   74  64  71 S6        30.06F
GALESBURG*     PTSUNNY   76  64  65 E12       30.08R
MACOMB*        TSTM      73  62  68 S10       30.09R
JACKSONVILLE*  CLOUDY    74  67  77 SE6       30.08S
PITTSFIELD*    CLOUDY    72  63  74 CALM      30.08F
$$

ILZ028>032-037-038-041>044-048-051>054-059>061-020100-
CENTRAL ILLINOIS

CITY           SKY/WX    TMP DP  RH WIND       PRES   REMARKS
PONTIAC        CLOUDY    68  64  88 CALM      30.08F
DECATUR        PTSUNNY   69  61  75 CALM      30.10S
PEORIA         CLOUDY    67  63  87 CALM      30.09S
6HR MIN TEMP:  66; 6HR MAX TEMP:  85; 6HR PCP:  0.64;

LACON*         CLOUDY    69  60  74 S5        30.08S
LINCOLN*       MOSUNNY   73  60  64 S5        30.07R
SPRINGFIELD    MOSUNNY   71  63  75 SE6       30.08S
6HR MIN TEMP:  65; 6HR MAX TEMP:  82; 6HR PCP:  0.67;

TAYLORVILLE    MOSUNNY   66  61  82 E5        30.09F
$$

ILZ033-039-045-046-055>057-062-063-020100-
EAST-CENTRAL ILLINOIS

CITY           SKY/WX    TMP DP  RH WIND       PRES   REMARKS
CHAMPAIGN      CLOUDY    71  65  81 SW6       30.10R
DANVILLE*      RAIN      69  64  82 CALM      30.05F
RANTOUL*       CLOUDY    71  62  74 CALM      30.10S
MATTOON        LGT RAIN  64  63  96 W8        30.11R FOG
PARIS*         CLOUDY    71  66  84 CALM      30.09S THUNDER
$$

ILZ079-100>102-020100-
SOUTHWEST ILLINOIS

CITY           SKY/WX    TMP DP  RH WIND       PRES   REMARKS
ALTON          PTSUNNY   72  66  83 NE5       30.08S
BELLEVILLE     LGT RAIN  71  66  84 NW2       30.07R
CAHOKIA*       LGT RAIN  72  67  84 NE7       30.07R
SPARTA*        TSTM      68  64  88 N16G23    30.08R
$$

ILZ064>066-069>071-074>076-080>082-084>086-088>090-092>094-020100-
SOUTH-CENTRAL ILLINOIS

CITY           SKY/WX    TMP DP  RH WIND       PRES   REMARKS
CARBONDALE     MOSUNNY   80  65  59 W5        30.03S HX  82
6HR MIN TEMP:  80; 6HR MAX TEMP:  86;

CAIRO*         SUNNY     82  68  63 CALM      30.03S HX  85
EFFINGHAM*     LGT RAIN  64  60  84 NE3       30.10F
MARION         MOSUNNY   82  64  54 E5        30.03F HX  84
MT. VERNON     PTSUNNY   72  61  68 N8G16     30.08R
CENTRALIA*     LGT RAIN  65  62  91 NE8       30.08F
SALEM*         CLOUDY    70  62  75 N10       30.10R
METROPOLIS*    MOSUNNY   83  58  41 CALM      30.02S HX  83
$$

ILZ067-068-072-073-078-083-087-091-020100-
SOUTHEAST ILLINOIS

CITY           SKY/WX    TMP DP  RH WIND       PRES   REMARKS
LAWRENCEVILLE  MOSUNNY   79  67  66 N6        30.06R HX  81
FLORA*         MOSUNNY   70  59  66 N9        30.08R
FAIRFIELD*     PTSUNNY   79  70  73 CALM      30.05R HX  81
HARRISBURG*    SUNNY     81  64  55 CALM      30.04F HX  83
ROBINSON*      CLOUDY    78  68  71 N3        30.07R THUNDER HX  80
CARMI*         MOSUNNY   79  73  83 CALM      30.04R HX  82
$$

ABBREVIATIONS USED IN REMARKS
   TC - TEMPERATURE IN CELSIUS
  WCI - WIND CHILL INDEX
   HX - HEAT INDEX
  VSB - VISIBILITY
$$



USA.gov is the U.S. government's official web portal to all federal, state and local government web resources and services.